Track DELTA 1 R/B now! 10-day predictions DELTA 1 R/B is classified as:
1 20323U 89089B 22226.65712403 .00000126 00000-0 41839-4 0 9994 2 20323 97.0768 258.9937 0069913 271.2308 88.0880 14.48548003706960